NOAA 16 DEB, 42344

Orbit data source: Space-Track

NOAA 16 DEB, 42344 is space debris in SSO originally from a launch on Thu, 21 Sep 2000 UTC launched from the Air Force Western Test Range (AFWTR). Debris objects in space refer to the collection of defunct objects orbiting the Earth. Examples of debris include non-operational satellites, rocket bodies, and fragments generated from explosions, collisions, or faulty payload assembly.

Loading next visibility...
Identifier
42344, 2000-055QL
Orbit
SSO
Country
Flag of USUS
Related business
Manufacturer
Unknown
Mission
Spacecraft
Bus & Motor
Unknown
Mass
Unknown
Launch date (UTC)
2000-09-21 (25 years ago)
Launch vehicle
Unknown
Launch site
Air Force Western Test Range (AFWTR)
Object type
Payload
Rocket body
Debris
Shape & HBR
Unknown shape, 0.1 m
Radar Cross Section
Small (<0.1 m²)

Expand to show TLE details & history
Last TLE update: 1 day ago

TLE from 1 day ago
0 NOAA 16 DEB
1 42344U 00055QL  25298.80519654  .00013916  00000-0  33358-2 0  9995
2 42344  98.7279  59.6698 0029468 342.3445  17.6723 14.53323759495420
Epoch: 2025-10-25T19:19Z
TLE epoch observation values (Epoch: 2025-10-25T19:19:28.981Z)
Latitude
-0°
Longitude
95.36857°
Altitude
697.859 km
Speed
7.518 km/s
True Right ascension
03h 58m 40s
True Declination
0° 00' 00"
Sunlit
Object was in full shadow at epoch
Visualization orbit readout
Latitude
Unknown
Longitude
Unknown
Altitude
Unknown
Speed
Unknown
Apparent Right ascension
Unknown
Apparent Declination
Unknown
Sunlit
N/A
Visualization observer readout
Local Sidereal Time
01:14:58
Azimuth
Unknown
Elevation
Unknown
Doppler factor
Unknown
Orbital elements
Apogee altitude
732.822 km
Perigee altitude
691.035 km
Semi-major axis
7,090.065 km
Eccentricity
0.00295
Inclination
98.7279°
RAAN
59.6698°
Arg. of periapsis
342.3445°
True anomaly
17.77517°
Mean anomaly
17.6723°
Eccentric anomaly
17.7237°
Mean motion
3.63553 °/min
Orbital period
99.02 mins
BSTAR
0.0033358
Loading maneuver chart data...
Computing Atmospheric mass density...
Loading historical data...
Loading historical data...
Loading historical data...
Loading historical data...
Loading historical data...
Loading historical data...
Loading historical data...

Documentation

Showing up to 5 results
|